Location: Misciano
(43.5000°N, 11.9500°E)
Time: 07:25:09
(UTC+00:00)

SL-27 R/B - Pass Details

Date: 13 August 2020
Orbit: 419 x 471 km, 74.7° (Epoch: 27 September)

Event Time Altitude Azimuth Distance (km) Brightness Sun altitude
Exits shadow 21:19:35 25° 302° (WNW) 902 4.5 -26.3°
Drops below altitude 10° 21:22:12 10° 354° (N) 1,510 5.9 -26.5°
Sets 21:24:30 0° 8° (N) 2,379 6.8 -26.7°
